Location: Gleizolles
(44.4833°N, 6.7667°E)
Time: 16:18:18
(UTC+00:00)

Altair - Pass Details

Date: 29 June 2024
Orbit: 1502 x 1681 km, 47.2° (Epoch: 13 July)

Event Time Altitude Azimuth Distance (km) Brightness Sun altitude
Rises 02:31:55 0° 275° (W) 4,645 9.7 -11.3°
Reaches altitude 10° 02:34:56 10° 277° (W) 3,674 9.2 -11.0°
Maximum altitude 02:44:14 76° 4° (N) 1,587 7.7 -9.9°
Drops below altitude 10° 02:53:51 10° 90° (E) 3,795 10.3 -8.7°
Sets 02:57:01 0° 93° (E) 4,804 10.8 -8.3°
